• In Hungary
  • List of Countries
  • For 7 days
  • Water Temperature
  • Satellite Maps
  • Weather Map
  • News
  • Weather Widgets
  • user-avatar
    Login

    Hourly Weather Albany

    Today, 18 October, Wednesday

    Time Temperature Precipitation Wind Pressure Humidity
    00:00 +10°C° 0.1 mm 9 mps 752 mmHg 79%
    01:00 +9°C° 0.1 mm 8 mps 753 mmHg 77%
    02:00 +9°C° 0 mm 8 mps 753 mmHg 74%
    03:00 +7°C° 0.1 mm 8 mps 754 mmHg 74%
    04:00 +7°C° 0.1 mm 8 mps 754 mmHg 74%
    05:00 +7°C° 0.1 mm 8 mps 755 mmHg 74%
    06:00 +9°C° 0.1 mm 8 mps 756 mmHg 70%
    07:00 +11°C° 0.1 mm 8 mps 756 mmHg 66%
    08:00 +12°C° 0 mm 9 mps 757 mmHg 62%
    09:00 +13°C° 0.1 mm 9 mps 758 mmHg 58%
    10:00 +13°C° 0.1 mm 9 mps 758 mmHg 55%
    11:00 +15°C° 0.1 mm 9 mps 759 mmHg 51%
    12:00 +15°C° 0 mm 9 mps 759 mmHg 52%
    13:00 +13°C° 0 mm 8 mps 759 mmHg 53%
    14:00 +13°C° 0 mm 8 mps 760 mmHg 55%
    15:00 +14°C° 0 mm 7 mps 760 mmHg 55%
    16:00 +14°C° 0 mm 7 mps 761 mmHg 56%
    17:00 +14°C° 0 mm 6 mps 761 mmHg 56%
    18:00 +13°C° 0 mm 6 mps 762 mmHg 61%
    19:00 +12°C° 0 mm 5 mps 763 mmHg 65%
    20:00 +9°C° 0 mm 5 mps 764 mmHg 70%
    21:00 +10°C° 0 mm 4 mps 764 mmHg 72%
    22:00 +8°C° 0 mm 4 mps 764 mmHg 75%
    23:00 +8°C° 0 mm 4 mps 765 mmHg 77%

    Tomorrow, 19 October, Thursday

    Time Temperature Precipitation Wind Pressure Humidity
    00:00 +8°C° 0 mm 4 mps 765 mmHg 79%
    01:00 +8°C° 0 mm 3 mps 765 mmHg 80%
    02:00 +8°C° 0 mm 3 mps 765 mmHg 82%
    03:00 +8°C° 0 mm 3 mps 765 mmHg 83%
    04:00 +8°C° 0 mm 3 mps 766 mmHg 85%
    05:00 +7°C° 0 mm 2 mps 766 mmHg 86%
    06:00 +9°C° 0 mm 2 mps 766 mmHg 80%
    07:00 +12°C° 0 mm 2 mps 767 mmHg 74%
    08:00 +14°C° 0 mm 1 mps 767 mmHg 68%
    09:00 +16°C° 0 mm 1 mps 767 mmHg 62%
    10:00 +18°C° 0 mm 1 mps 767 mmHg 56%
    11:00 +20°C° 0 mm 1 mps 768 mmHg 51%
    12:00 +19°C° 0 mm 2 mps 767 mmHg 51%
    13:00 +20°C° 0 mm 2 mps 767 mmHg 51%
    14:00 +20°C° 0 mm 3 mps 767 mmHg 51%
    15:00 +19°C° 0 mm 4 mps 767 mmHg 55%
    16:00 +18°C° 0 mm 4 mps 767 mmHg 60%
    17:00 +16°C° 0 mm 5 mps 767 mmHg 64%
    18:00 +15°C° 0 mm 5 mps 767 mmHg 68%
    19:00 +14°C° 0 mm 5 mps 768 mmHg 71%
    20:00 +13°C° 0 mm 5 mps 768 mmHg 75%
    21:00 +13°C° 0 mm 5 mps 769 mmHg 77%
    22:00 +12°C° 0 mm 5 mps 769 mmHg 79%
    23:00 +12°C° 0 mm 5 mps 769 mmHg 81%

    Day after tomorrow, 20 October, Friday

    Time Temperature Precipitation Wind Pressure Humidity
    00:00 +12°C° 0 mm 5 mps 769 mmHg 82%
    01:00 +12°C° 0 mm 5 mps 768 mmHg 84%
    02:00 +11°C° 0 mm 6 mps 768 mmHg 86%
    03:00 +10°C° 0 mm 5 mps 768 mmHg 87%
    04:00 +10°C° 0 mm 5 mps 768 mmHg 87%
    05:00 +10°C° 0 mm 5 mps 768 mmHg 87%
    06:00 +13°C° 0 mm 6 mps 768 mmHg 81%
    07:00 +14°C° 0 mm 6 mps 768 mmHg 74%
    08:00 +16°C° 0 mm 6 mps 768 mmHg 67%
    09:00 +17°C° 0 mm 6 mps 768 mmHg 61%
    10:00 +20°C° 0 mm 6 mps 768 mmHg 55%
    11:00 +22°C° 0 mm 6 mps 768 mmHg 50%
    12:00 +23°C° 0 mm 6 mps 768 mmHg 48%
    13:00 +23°C° 0 mm 6 mps 767 mmHg 47%
    14:00 +24°C° 0 mm 6 mps 767 mmHg 46%
    15:00 +23°C° 0 mm 6 mps 767 mmHg 51%
    16:00 +21°C° 0 mm 6 mps 767 mmHg 56%
    17:00 +20°C° 0 mm 7 mps 767 mmHg 62%
    18:00 +18°C° 0 mm 7 mps 767 mmHg 67%
    19:00 +16°C° 0 mm 6 mps 767 mmHg 73%
    20:00 +14°C° 0 mm 6 mps 768 mmHg 78%
    21:00 +14°C° 0 mm 6 mps 768 mmHg 81%
    22:00 +14°C° 0 mm 6 mps 768 mmHg 84%
    23:00 +13°C° 0 mm 6 mps 768 mmHg 87%

    21 October, Saturday

    Time Temperature Precipitation Wind Pressure Humidity
    00:00 +13°C° 0 mm 6 mps 768 mmHg 88%
    01:00 +13°C° 0 mm 6 mps 767 mmHg 89%
    02:00 +13°C° 0 mm 5 mps 767 mmHg 90%
    03:00 +13°C° 0 mm 5 mps 767 mmHg 90%
    04:00 +13°C° 0 mm 5 mps 766 mmHg 90%
    05:00 +13°C° 0 mm 5 mps 766 mmHg 91%
    06:00 +15°C° 0 mm 5 mps 766 mmHg 84%
    07:00 +16°C° 0 mm 6 mps 766 mmHg 77%
    08:00 +17°C° 0 mm 6 mps 766 mmHg 70%
    09:00 +20°C° 0 mm 6 mps 766 mmHg 63%
    10:00 +22°C° 0 mm 6 mps 766 mmHg 56%
    11:00 +24°C° 0 mm 6 mps 766 mmHg 49%
    12:00 +24°C° 0 mm 6 mps 765 mmHg 48%
    13:00 +26°C° 0 mm 6 mps 764 mmHg 48%
    14:00 +26°C° 0 mm 7 mps 763 mmHg 47%
    15:00 +24°C° 0 mm 7 mps 763 mmHg 53%
    16:00 +22°C° 0 mm 7 mps 763 mmHg 59%
    17:00 +21°C° 0 mm 7 mps 763 mmHg 65%
    18:00 +20°C° 0 mm 7 mps 763 mmHg 67%
    19:00 +18°C° 0 mm 7 mps 763 mmHg 69%
    20:00 +17°C° 0 mm 8 mps 763 mmHg 71%
    21:00 +16°C° 0 mm 7 mps 762 mmHg 72%
    22:00 +16°C° 0 mm 6 mps 762 mmHg 73%
    23:00 +16°C° 0 mm 5 mps 762 mmHg 74%

    22 October, Sunday

    Time Temperature Precipitation Wind Pressure Humidity
    00:00 +16°C° 0.1 mm 5 mps 761 mmHg 79%
    01:00 +15°C° 0.1 mm 5 mps 760 mmHg 83%
    02:00 +15°C° 0.1 mm 6 mps 760 mmHg 87%
    03:00 +15°C° 0.1 mm 5 mps 759 mmHg 87%
    04:00 +15°C° 0.1 mm 5 mps 759 mmHg 88%
    05:00 +15°C° 0.1 mm 5 mps 759 mmHg 88%
    06:00 +15°C° 0.9 mm 4 mps 759 mmHg 89%
    07:00 +17°C° 0.9 mm 4 mps 759 mmHg 89%
    08:00 +18°C° 0.9 mm 4 mps 759 mmHg 89%
    09:00 +19°C° 0.9 mm 4 mps 758 mmHg 82%
    10:00 +21°C° 0.9 mm 4 mps 758 mmHg 74%
    11:00 +23°C° 0.9 mm 5 mps 757 mmHg 66%
    12:00 +25°C° 0.2 mm 5 mps 756 mmHg 62%
    13:00 +26°C° 0.2 mm 5 mps 756 mmHg 58%
    14:00 +26°C° 0.2 mm 5 mps 755 mmHg 54%
    15:00 +25°C° 0 mm 5 mps 754 mmHg 58%
    16:00 +24°C° 0 mm 6 mps 754 mmHg 62%
    17:00 +23°C° 0 mm 6 mps 753 mmHg 66%
    18:00 +21°C° 0 mm 5 mps 753 mmHg 70%
    19:00 +19°C° 0 mm 5 mps 754 mmHg 75%
    20:00 +17°C° 0 mm 4 mps 754 mmHg 80%
    21:00 +17°C° 0 mm 4 mps 754 mmHg 83%
    22:00 +15°C° 0 mm 4 mps 754 mmHg 86%
    23:00 +16°C° 0 mm 3 mps 753 mmHg 89%

    23 October, Monday

    Time Temperature Precipitation Wind Pressure Humidity
    00:00 +14°C° 0 mm 3 mps 753 mmHg 91%
    01:00 +15°C° 0 mm 2 mps 752 mmHg 92%
    02:00 +14°C° 0 mm 1 mps 752 mmHg 93%
    03:00 +15°C° 0 mm 2 mps 752 mmHg 94%
    04:00 +15°C° 0 mm 2 mps 752 mmHg 95%
    05:00 +14°C° 0 mm 3 mps 752 mmHg 95%
    06:00 +16°C° 0 mm 3 mps 753 mmHg 90%
    07:00 +18°C° 0 mm 3 mps 753 mmHg 85%
    08:00 +19°C° 0 mm 3 mps 754 mmHg 80%
    09:00 +20°C° 0 mm 4 mps 754 mmHg 75%
    10:00 +21°C° 0 mm 4 mps 754 mmHg 71%
    11:00 +22°C° 0 mm 5 mps 754 mmHg 66%
    12:00 +22°C° 0 mm 5 mps 754 mmHg 66%
    13:00 +22°C° 0 mm 5 mps 754 mmHg 66%
    14:00 +22°C° 0 mm 5 mps 754 mmHg 66%
    15:00 +21°C° 0 mm 6 mps 754 mmHg 70%
    16:00 +20°C° 0 mm 6 mps 754 mmHg 74%
    17:00 +19°C° 0 mm 6 mps 755 mmHg 78%
    18:00 +17°C° 0 mm 5 mps 755 mmHg 82%
    19:00 +16°C° 0 mm 5 mps 756 mmHg 85%
    20:00 +15°C° 0 mm 4 mps 757 mmHg 88%
    21:00 +15°C° 0 mm 4 mps 757 mmHg 88%
    22:00 +14°C° 0 mm 4 mps 757 mmHg 88%
    23:00 +14°C° 0 mm 4 mps 757 mmHg 88%
    Show more